Location: Columbia
(38.9520°N, 92.3340°W)
Time: 07:22:36
(UTC-05:00)

Iridium 52 - Visible Passes

Search period start: 04 September 2015 00:00
Search period end: 14 September 2015 00:00
Orbit: 776 x 779 km, 86.4° (Epoch: 02 September)

Date Brightness Start Highest point End Pass type
(mag) Time Alt. Az. Time Alt. Az. Time Alt. Az.
04 Sep 7.3 20:21:31 10° SSW 20:26:29 45° W 20:31:29 10° N visible
06 Sep 9.1 20:57:07 10° WSW 21:00:35 17° WNW 21:03:49 10° NW visible
07 Sep 9.6 05:47:39 10° NE 05:49:47 13° ENE 05:52:14 10° E visible
07 Sep 8.1 20:22:06 10° SW 20:26:43 31° W 20:31:18 10° NNW visible
08 Sep 6.9 19:47:54 10° SSW 19:53:01 58° W 19:58:11 10° N visible
09 Sep 9.5 20:59:06 10° W 21:00:58 11° WNW 21:02:30 10° NW visible
10 Sep 9.2 05:46:38 10° NNE 05:50:10 19° ENE 05:53:52 10° ESE visible
10 Sep 8.9 20:22:58 10° SW 20:27:00 22° WNW 20:30:54 10° NNW visible
11 Sep 7.7 19:48:20 10° SSW 19:53:13 39° W 19:58:05 10° NNW visible
12 Sep 7.2 06:19:08 10° N 06:24:12 50° E 06:29:15 10° SSE visible
13 Sep 8.4 05:46:08 10° NNE 05:50:28 27° ENE 05:54:54 10° SE visible
13 Sep 9.4 20:24:18 10° WSW 20:27:22 15° WNW 20:30:09 10° NW visible
